TimeCDT,TemperatureF,Dew PointF,Humidity,Sea Level PressureIn,VisibilityMPH,Wind Direction,Wind SpeedMPH,Gust SpeedMPH,PrecipitationIn,Events,Conditions,WindDirDegrees,DateUTC
12:54 AM,68.0,59.0,73,29.95,10.0,SSE,4.6,-,N/A,,Clear,160,2013-07-06 05:54:00
1:54 AM,68.0,59.0,73,29.95,10.0,SSE,5.8,-,N/A,,Partly Cloudy,160,2013-07-06 06:54:00
2:54 AM,68.0,60.1,76,29.96,10.0,South,4.6,-,N/A,,Clear,180,2013-07-06 07:54:00
3:54 AM,66.9,60.1,79,29.95,10.0,South,4.6,-,N/A,,Clear,170,2013-07-06 08:54:00
4:54 AM,64.0,59.0,84,29.96,10.0,SE,3.5,-,N/A,,Clear,140,2013-07-06 09:54:00
5:54 AM,64.0,60.1,87,29.96,10.0,SSE,3.5,-,N/A,,Clear,150,2013-07-06 10:54:00
6:54 AM,69.1,61.0,75,29.96,10.0,SSE,4.6,-,N/A,,Clear,160,2013-07-06 11:54:00
7:54 AM,73.0,62.1,68,29.97,10.0,South,5.8,-,N/A,,Clear,180,2013-07-06 12:54:00
8:54 AM,77.0,63.0,62,29.96,10.0,SW,5.8,-,N/A,,Clear,230,2013-07-06 13:54:00
9:54 AM,81.0,61.0,50,29.95,10.0,West,11.5,18.4,N/A,,Clear,260,2013-07-06 14:54:00
10:54 AM,84.0,61.0,46,29.96,10.0,SW,9.2,-,N/A,,Clear,220,2013-07-06 15:54:00
11:54 AM,87.1,59.0,39,29.95,10.0,South,8.1,-,N/A,,Clear,190,2013-07-06 16:54:00
12:54 PM,88.0,59.0,37,29.94,10.0,South,12.7,16.1,N/A,,Clear,190,2013-07-06 17:54:00
1:54 PM,89.1,59.0,36,29.94,10.0,South,12.7,19.6,N/A,,Clear,190,2013-07-06 18:54:00
2:54 PM,89.1,60.1,38,29.93,10.0,SSW,9.2,17.3,N/A,,Clear,210,2013-07-06 19:54:00
3:54 PM,90.0,59.0,35,29.92,10.0,South,12.7,17.3,N/A,,Clear,180,2013-07-06 20:54:00
4:54 PM,89.1,57.9,35,29.91,10.0,SSW,9.2,-,N/A,,Clear,210,2013-07-06 21:54:00
5:54 PM,87.1,59.0,39,29.90,10.0,SSW,10.4,-,N/A,,Clear,200,2013-07-06 22:54:00
6:54 PM,86.0,59.0,40,29.90,10.0,South,8.1,-,N/A,,Clear,190,2013-07-06 23:54:00
7:54 PM,81.0,62.1,52,29.90,10.0,South,6.9,-,N/A,,Clear,190,2013-07-07 00:54:00
8:54 PM,78.1,63.0,60,29.91,10.0,South,5.8,-,N/A,,Clear,180,2013-07-07 01:54:00
9:54 PM,75.9,63.0,64,29.94,10.0,South,4.6,-,N/A,,Scattered Clouds,170,2013-07-07 02:54:00
10:54 PM,73.0,63.0,71,29.93,10.0,SE,5.8,-,N/A,,Clear,140,2013-07-07 03:54:00
11:54 PM,72.0,63.0,73,29.92,10.0,South,3.5,-,N/A,,Partly Cloudy,170,2013-07-07 04:54:00